Location: Frankfurt am Main
(50.1109°N, 8.6821°E)
Time: 17:54:57
(UTC+02:00)

ISS - Pass Details

Date: 22 May 2021
Orbit: 419 x 422 km, 51.6° (Epoch: 24 June)

Event Time Altitude Azimuth Distance (km) Brightness Sun altitude
Rises 01:14:03 0° 287° (WNW) 2,269 0.2 -19.5°
Reaches altitude 10° 01:16:11 10° 280° (W) 1,399 -1.0 -19.5°
Enters shadow 01:17:18 19° 272° (W) 975 -1.9 -19.5°
